Location: ??????
(36.0418°N, 43.6351°E)
Time: 03:09:25
(UTC+00:00)

Cosmos 2322 Rocket - Pass Details

Date: 07 March 2021
Orbit: 832 x 852 km, 71.0° (Epoch: 22 April)

Event Time Altitude Azimuth Distance (km) Brightness Sun altitude
Exits shadow 01:45:03 21° 202° (SSW) 1,827 3.6 -21.5°
Drops below altitude 10° 01:47:02 10° 190° (S) 2,465 4.4 -21.1°
Sets 01:49:38 0° 182° (S) 3,399 5.2 -20.6°
